Wind_Speed
25 24 25 26 25 24 24 24 24 24 25 24 21 18 16 13 9 7 10 15 19 19 18 18 17 16 15 15 16 17 18 19 20 20 20 20 20 19 19 18 18 18 18 19 19 18 18 17 17 18 19 18 15 15 14 13 14 16 16 16 16 16 16 13 9 11 12 13 15 15 18 22 21 21 27 33 35 31 30 32 31 26 24 26 27
24 23 24 26 25 24 24 25 26 27 27 25 22 19 17 13 10 8 12 19 21 19 19 18 17 16 15 15 17 18 19 20 21 21 21 20 20 20 19 19 19 18 18 19 19 18 18 18 18 18 19 18 16 15 14 12 12 15 16 16 16 16 17 15 12 12 14 15 16 16 18 20 20 21 26 31 35 33 29 31 33 28 25 27 28
25 24 24 25 25 25 25 26 28 29 28 26 22 19 17 13 10 9 13 20 21 19 19 18 17 16 15 16 18 19 20 21 21 21 21 20 20 20 20 20 19 19 19 19 18 18 18 19 18 18 18 17 16 15 15 14 13 14 15 15 15 15 17 16 13 13 14 15 16 17 18 19 20 21 24 29 33 34 31 30 31 30 28 27 27
26 24 24 25 25 25 25 27 30 30 29 26 23 20 17 14 11 8 12 18 21 19 19 17 16 16 16 18 20 21 21 22 22 21 21 20 20 20 21 21 20 19 19 19 18 18 18 18 17 17 16 15 14 14 14 14 14 14 14 12 12 13 14 13 12 12 14 14 15 16 17 19 20 21 24 28 30 32 33 31 27 27 28 28 27
27 25 24 26 26 25 26 29 30 30 28 25 23 21 17 14 11 9 9 14 19 19 19 17 17 16 17 19 21 21 22 23 23 23 22 21 21 21 22 21 20 20 19 19 19 18 18 17 16 15 15 14 14 13 14 14 14 14 14 11 10 11 12 11 11 12 12 13 15 16 16 18 20 21 24 29 28 27 31 31 26 24 25 26 26
29 26 24 27 27 26 28 30 31 30 27 25 24 21 18 14 12 9 7 12 18 20 19 18 17 17 18 20 21 22 23 24 23 23 23 22 22 22 22 21 20 20 19 19 19 18 17 16 16 15 14 13 13 13 13 14 14 14 14 13 11 12 11 10 11 11 11 12 14 16 17 18 21 23 25 30 29 26 27 28 27 25 24 25 25
28 25 23 26 28 27 29 31 31 31 28 26 24 22 19 15 12 10 8 11 18 20 19 19 18 17 18 20 22 23 24 24 24 23 23 23 23 22 22 21 21 20 20 19 19 18 17 16 15 14 14 13 12 12 12 13 13 13 14 14 14 14 11 10 11 11 10 12 13 16 17 18 21 23 26 30 30 26 26 25 26 28 27 25 24
24 22 22 25 28 29 30 31 32 32 30 28 25 23 20 15 12 10 9 12 19 20 19 20 18 18 20 21 22 24 24 24 24 24 23 22 22 22 22 22 21 20 20 19 19 18 16 15 14 13 12 12 12 11 12 13 13 12 13 14 15 15 12 10 11 11 10 12 13 15 17 18 21 24 28 32 32 29 27 25 25 28 28 26 24
21 21 21 25 30 31 31 33 33 32 31 28 26 24 21 16 13 11 10 15 20 20 20 20 19 20 21 22 23 24 25 24 24 24 23 23 22 22 21 21 21 20 20 19 18 17 15 14 13 12 11 11 11 11 11 12 12 12 13 14 15 16 15 12 11 12 11 11 13 15 17 18 21 24 28 32 32 30 27 25 24 26 27 26 25
21 21 22 26 30 31 32 33 33 32 31 29 26 24 21 17 14 11 12 18 21 20 20 20 20 21 22 23 25 25 25 25 25 25 24 23 23 22 22 21 20 20 20 19 18 16 14 13 12 11 11 11 10 10 10 11 12 12 13 14 14 15 16 15 14 14 11 11 14 15 17 18 20 22 26 30 32 30 27 25 25 26 27 26 26
22 21 23 27 29 29 30 31 31 32 31 28 26 24 20 18 15 13 15 20 22 21 21 21 20 21 23 24 26 26 27 27 27 26 25 24 23 22 22 22 21 20 19 18 17 15 13 13 11 10 11 10 10 10 10 10 11 12 13 14 15 15 16 16 16 17 14 11 13 15 16 17 18 20 24 29 31 30 27 24 25 27 27 27 28
22 21 23 27 29 29 29 30 30 31 29 27 26 23 21 19 15 13 16 21 23 22 22 22 21 22 23 25 26 27 28 27 26 26 26 25 24 21 21 22 20 19 17 16 15 14 13 13 12 10 10 9 9 10 10 9 10 12 13 14 14 15 16 16 16 18 17 13 12 14 15 16 16 19 24 29 30 29 27 24 24 26 26 25 27
22 20 21 24 28 30 29 28 28 29 28 27 26 23 21 18 13 13 17 20 23 23 22 22 22 22 23 25 27 27 27 26 25 25 25 26 25 21 19 20 19 17 16 14 13 12 11 11 10 10 9 8 7 8 8 8 9 11 12 13 14 15 15 16 16 17 18 15 11 12 14 15 16 20 24 27 28 28 27 24 25 26 25 23 24
22 21 20 22 27 29 28 27 27 28 28 26 25 24 21 15 13 15 16 18 22 23 23 23 23 23 23 25 27 27 25 25 25 24 23 25 25 20 17 18 19 18 18 16 13 12 10 9 9 9 8 7 6 7 7 7 8 9 10 11 12 14 15 17 18 18 18 15 11 11 14 16 17 20 24 26 27 27 25 23 24 26 24 21 22
23 22 21 23 26 27 28 28 28 29 28 26 25 25 20 14 14 16 15 17 21 22 23 24 24 24 24 25 26 27 26 26 25 25 24 24 24 21 17 19 20 20 20 19 17 16 14 12 11 10 9 7 6 6 5 6 8 7 6 6 6 8 11 14 16 16 15 13 11 13 15 18 19 21 23 25 26 27 24 20 21 24 23 20 20
26 27 26 26 26 25 27 29 30 30 28 26 26 23 18 14 15 16 15 17 20 21 23 23 23 24 24 24 27 28 27 27 27 26 25 25 24 22 19 21 21 20 20 19 17 16 15 13 11 9 8 7 6 5 4 4 6 6 3 3 3 3 8 12 14 14 12 11 12 14 16 18 19 20 22 24 26 27 23 19 20 22 21 20 20
30 30 28 27 25 26 28 29 30 29 28 27 26 20 16 16 16 16 17 18 20 21 22 22 22 23 23 23 28 29 28 27 27 26 26 26 25 22 19 18 18 19 19 18 17 17 16 13 11 10 9 7 6 5 3 2 4 4 1 2 3 4 8 13 14 14 12 11 14 16 16 18 19 18 21 23 25 26 22 19 21 21 20 20 21
32 31 29 27 27 27 28 27 27 28 27 27 23 17 15 16 16 16 17 19 21 21 21 21 22 22 23 25 28 28 27 27 27 26 26 25 25 24 19 14 15 18 19 17 17 16 15 13 12 11 10 8 6 4 2 2 2 1 0 2 3 5 9 12 12 11 12 13 16 16 15 17 17 16 19 20 22 24 21 19 21 21 20 21 20
31 31 28 26 24 23 23 25 26 26 26 24 20 17 17 16 15 16 18 19 20 20 19 20 20 22 26 28 26 25 27 27 26 26 27 26 27 25 18 11 14 18 18 17 16 15 14 13 12 10 9 8 6 4 3 2 1 1 1 1 3 5 9 12 10 10 11 12 13 13 13 14 14 14 16 16 17 20 19 18 19 19 19 21 20
30 31 27 25 23 21 23 26 26 25 23 22 20 20 19 17 15 17 18 19 19 18 19 21 21 23 26 26 24 25 28 28 27 27 28 28 28 25 18 11 14 16 16 15 14 14 14 14 13 11 10 8 6 4 4 2 2 2 1 2 4 6 10 11 10 12 12 12 12 11 11 12 12 13 14 14 14 18 19 18 18 18 18 20 19
31 33 30 28 27 26 28 28 26 25 25 21 18 18 18 17 17 20 21 22 23 24 24 24 22 22 23 23 25 28 29 28 27 27 28 28 28 26 20 12 12 14 13 13 12 11 12 12 13 13 11 8 7 5 4 3 3 3 3 4 5 8 10 10 11 13 11 11 11 11 11 12 12 13 14 14 14 17 18 17 17 17 17 18 19
33 36 34 30 28 28 29 27 25 27 28 23 16 15 18 20 22 24 26 27 28 28 26 23 21 22 24 25 27 29 28 25 25 26 28 28 29 27 22 17 15 15 12 11 11 10 10 12 15 14 12 9 7 5 5 4 3 4 4 5 7 9 10 10 13 11 10 10 10 10 11 12 12 13 15 15 15 17 18 18 17 17 17 17 17
31 34 30 25 25 26 27 26 26 27 29 26 19 17 20 22 22 24 26 26 26 25 23 22 23 25 27 28 28 28 25 24 24 25 27 28 29 28 26 23 21 18 14 11 11 10 10 15 17 14 12 10 8 6 5 4 3 4 4 5 7 8 9 10 11 9 9 9 10 10 10 12 12 13 15 15 16 17 18 18 17 17 17 17 17
27 29 29 26 27 27 27 27 27 28 29 29 24 20 20 20 21 22 23 23 24 23 23 25 25 25 27 27 26 25 23 23 24 25 26 28 29 28 27 25 25 23 19 13 11 11 13 17 18 14 12 11 8 7 6 4 4 5 4 5 7 8 9 10 8 8 8 8 9 9 10 11 12 13 14 15 15 16 17 18 18 17 18 18 17
26 31 35 34 31 29 28 27 28 28 27 27 25 22 22 23 23 24 23 23 24 24 24 25 24 23 24 25 24 23 22 22 25 26 26 27 28 28 27 26 27 27 23 18 16 16 17 19 18 14 13 11 9 8 7 5 5 5 5 6 6 6 8 7 7 7 7 7 8 9 10 10 11 12 13 14 14 15 16 18 17 17 18 18 17
26 31 36 34 30 30 30 28 28 28 26 24 24 24 25 26 25 24 24 24 23 22 22 23 22 21 22 22 22 22 22 21 23 25 27 26 26 27 27 26 26 28 27 24 21 20 20 21 19 15 13 12 10 9 7 6 6 6 5 6 6 4 3 5 6 6 6 7 8 9 9 10 11 12 13 13 14 14 16 17 17 16 17 18 17
24 29 34 33 30 30 29 28 29 28 26 25 25 25 26 25 24 24 26 25 23 22 21 22 22 21 21 21 21 21 21 21 21 23 26 28 28 28 28 27 27 28 28 26 24 22 22 21 18 15 14 12 11 9 8 7 7 6 6 6 6 3 5 6 6 5 5 6 8 8 9 11 11 12 13 13 14 15 15 16 17 16 17 17 17
21 26 31 33 32 31 30 29 29 28 26 26 26 25 24 25 24 25 26 26 24 23 22 21 22 21 20 20 20 20 21 22 22 23 27 29 30 29 28 28 27 27 27 26 24 21 20 18 17 15 14 12 11 10 9 8 8 7 6 7 6 7 9 9 8 6 5 6 8 8 9 11 11 12 13 13 14 15 14 15 17 17 16 17 17
22 24 27 31 32 31 30 30 29 28 27 25 24 22 22 24 24 24 25 25 23 22 21 20 21 20 19 19 20 21 21 22 23 24 26 28 29 29 28 28 27 26 26 24 20 16 15 16 15 14 13 13 11 10 9 9 9 8 9 9 9 9 10 10 8 6 6 7 8 8 9 11 11 12 13 13 15 15 15 16 17 16 16 17 17
22 24 25 28 30 30 30 30 30 28 26 25 24 23 22 24 23 21 22 23 23 22 21 19 19 19 17 17 18 20 21 21 23 24 24 25 27 27 25 25 25 24 23 22 19 14 12 13 13 13 12 12 11 10 10 10 10 9 10 11 10 9 9 9 8 7 8 9 9 9 10 11 11 12 13 14 16 16 15 16 17 16 16 17 17
22 24 25 26 28 29 29 30 30 28 26 26 26 26 25 25 24 21 21 23 25 26 24 22 21 20 19 17 19 21 21 20 21 24 25 24 25 26 25 24 24 23 22 22 20 18 14 12 12 12 12 12 12 11 11 11 11 10 10 11 10 10 10 9 9 8 9 10 9 9 10 11 12 13 14 15 17 17 16 16 16 16 16 18 18
20 22 23 25 27 29 29 29 29 29 28 27 26 26 26 26 27 25 23 23 26 27 27 25 24 24 23 20 19 21 22 20 19 22 24 23 23 24 25 24 23 23 22 21 21 20 18 15 13 12 12 12 12 12 11 11 12 12 11 11 11 11 11 10 9 9 9 9 9 10 11 12 12 14 15 16 16 16 15 15 16 16 17 18 18
19 21 22 23 26 28 29 29 30 30 30 29 28 25 23 25 28 30 28 26 26 26 26 27 27 27 26 23 20 19 22 21 20 20 21 21 21 21 23 23 22 22 20 20 20 20 18 15 13 13 13 13 12 12 12 12 12 12 12 12 11 11 11 11 10 11 10 10 11 11 12 12 13 15 15 15 15 15 15 15 15 15 17 18 17
18 19 20 21 24 26 27 29 32 31 30 30 29 25 21 22 27 30 32 31 28 25 24 26 27 28 28 27 22 19 19 21 21 21 20 19 19 20 21 22 22 22 21 20 20 20 18 16 14 13 13 13 12 12 12 12 12 12 12 12 11 11 11 10 10 11 11 11 11 11 12 13 14 15 15 15 15 15 14 15 15 15 17 17 17
16 17 18 19 23 25 26 28 31 31 31 31 30 28 25 22 22 25 29 31 30 26 24 25 26 27 28 27 24 20 17 16 17 18 19 18 18 20 21 22 22 22 21 21 21 20 18 16 14 13 13 12 12 12 12 12 12 12 12 12 12 11 11 11 11 11 11 11 11 12 13 15 15 15 15 15 14 15 15 15 16 16 16 16 18
18 19 17 16 20 24 27 29 30 30 31 30 29 29 29 24 20 20 22 25 26 24 23 24 25 25 25 25 24 22 18 14 11 12 14 15 16 18 20 21 21 21 20 20 20 20 18 16 14 13 13 13 12 12 12 12 13 12 12 12 12 11 11 11 11 11 11 11 12 13 15 16 16 15 15 15 15 16 16 17 17 17 17 19 23
18 20 20 18 18 21 26 29 29 29 30 27 24 27 29 25 22 20 17 17 20 21 21 23 24 25 25 25 24 24 23 19 15 13 12 12 12 14 15 16 16 15 15 16 17 17 18 17 16 14 13 13 13 12 12 12 12 12 12 13 12 12 12 12 12 13 14 13 14 15 16 16 16 16 17 18 18 18 18 19 19 20 21 24 26
14 16 19 20 19 20 23 25 25 27 29 28 25 25 25 23 24 24 21 20 21 21 21 23 25 26 27 27 26 26 25 23 21 18 15 12 11 11 12 12 12 11 11 11 12 13 14 14 14 14 14 13 13 12 12 12 12 12 12 13 13 13 13 14 15 17 16 15 15 15 15 16 16 17 18 19 19 20 20 21 20 21 23 25 24
12 14 17 19 19 19 19 19 19 23 28 29 26 22 20 22 25 25 23 21 21 19 18 21 24 26 27 28 27 26 25 24 23 20 18 15 13 12 12 12 12 12 12 11 11 11 12 13 13 13 13 13 13 12 12 12 12 12 13 13 13 13 14 14 15 15 15 14 15 15 16 17 18 18 18 19 20 21 21 22 23 25 26 25 22
12 15 17 17 17 16 15 15 16 18 23 25 21 16 17 22 23 20 17 17 16 16 19 21 22 24 26 28 28 27 26 24 22 20 18 16 15 14 13 13 13 12 13 13 13 13 12 13 13 13 13 12 12 12 11 12 13 13 13 14 14 15 15 15 15 15 15 16 17 17 18 19 20 20 20 20 20 22 24 26 27 26 24 23 24
11 15 17 18 18 16 15 14 14 15 18 19 17 15 16 19 18 17 17 15 15 17 20 21 21 22 24 26 26 25 24 22 20 18 16 15 14 14 14 13 13 12 12 13 14 14 13 13 12 12 13 13 13 12 12 12 12 12 13 14 15 16 15 16 16 16 17 17 18 19 21 22 22 22 22 22 24 26 28 27 25 23 24 27 28
11 13 16 18 18 15 14 13 14 15 15 15 13 14 15 13 12 16 19 17 16 16 19 20 20 20 22 24 23 22 21 20 19 17 16 15 14 14 13 13 12 12 12 13 14 14 14 15 16 16 16 14 13 12 12 13 13 15 16 16 17 17 17 17 17 17 18 19 21 22 23 24 24 24 25 26 27 27 25 23 23 25 28 28 27
12 12 13 15 15 14 13 14 14 14 14 14 14 14 13 10 11 16 19 18 17 17 18 19 18 18 19 21 20 20 20 20 19 17 17 16 15 13 13 12 12 12 13 14 15 15 16 17 18 17 15 13 11 11 12 14 15 16 16 16 16 16 16 16 17 18 21 23 24 25 26 27 27 27 27 27 25 23 22 23 25 26 26 26 26
14 12 11 13 14 14 14 14 14 13 13 14 14 13 11 9 11 15 17 18 17 18 18 17 15 15 18 19 20 19 20 19 18 17 17 15 14 13 12 12 12 12 13 14 15 15 16 16 15 14 13 12 12 14 14 14 15 16 16 16 17 17 18 19 20 22 24 25 26 27 28 29 29 29 27 25 24 24 24 25 26 26 26 27 29
15 13 13 13 14 14 14 14 14 13 12 12 11 10 10 10 10 11 15 18 18 17 16 16 15 15 17 17 18 18 18 17 17 16 15 14 13 12 12 12 12 11 12 13 13 13 13 14 14 13 13 13 15 16 16 16 16 17 18 19 19 19 20 21 22 24 25 26 27 29 30 30 29 28 26 25 25 25 25 25 26 27 28 29 29
15 14 14 13 13 14 15 14 14 13 12 11 10 10 12 12 10 10 14 17 18 17 16 16 16 16 16 15 16 16 16 15 15 14 14 14 14 13 12 12 12 11 11 11 12 13 13 13 14 14 15 16 17 17 17 18 19 20 20 20 20 20 21 22 23 24 26 28 29 30 31 30 28 26 25 25 25 25 25 26 27 28 28 29 29
15 14 14 14 14 14 14 14 14 13 12 12 12 13 14 14 13 13 15 17 17 16 16 16 16 16 16 15 15 14 13 13 13 13 14 14 14 13 12 12 12 11 12 12 12 13 13 14 15 16 17 18 18 18 19 21 23 22 21 21 22 23 24 25 26 27 28 29 29 29 28 27 26 25 25 25 25 26 26 27 28 28 29 30 31
14 14 14 14 14 14 14 14 13 13 13 13 14 15 17 17 16 15 15 15 15 16 16 16 16 16 15 14 13 12 12 12 12 13 13 13 13 12 12 12 12 12 12 12 13 14 14 15 16 17 18 18 19 20 21 23 23 22 22 23 25 26 26 27 28 28 28 27 26 25 25 24 24 25 25 25 26 27 28 28 29 29 30 31 30
15 14 13 13 12 12 12 12 12 13 14 14 15 15 16 16 16 15 14 15 16 16 16 16 16 15 14 13 12 11 11 11 11 11 12 12 12 12 13 13 12 12 12 14 15 15 15 16 16 17 18 19 20 21 21 22 22 23 25 26 26 27 27 27 27 26 25 24 23 23 23 24 24 24 24 25 26 27 28 28 29 29 29 29 27
12 12 13 13 12 12 12 12 13 13 13 13 13 13 14 14 15 15 14 15 15 16 16 15 15 14 13 12 11 11 11 11 11 11 12 13 13 13 13 13 13 13 14 15 16 16 16 16 17 18 19 19 19 20 21 22 24 25 26 26 27 26 26 25 24 23 23 22 22 22 23 23 24 25 25 26 27 27 27 27 27 27 27 25 24
13 13 13 13 12 11 11 11 11 11 12 12 12 12 13 14 14 14 14 14 14 14 14 14 14 14 13 13 13 14 14 13 13 14 15 15 14 14 13 13 14 14 15 16 16 16 17 18 18 19 20 20 20 21 23 24 24 25 25 25 24 23 22 21 21 21 21 21 22 22 23 24 25 25 26 26 25 25 25 25 26 25 24 22 20
Wind_Direction
178 182 189 189 188 190 191 189 187 180 173 171 171 170 171 172 175 184 186 179 178 178 173 171 172 171 170 167 163 161 160 158 156 155 154 149 144 140 138 138 137 135 133 129 125 121 118 116 114 110 106 101 93 86 76 65 65 65 63 61 54 51 52 42 12 352 352 351 350 349 349 355 357 354 357 8 14 9 3 6 5 359 353 352 351
180 186 191 189 188 192 188 184 183 176 170 172 175 171 171 175 176 180 185 182 178 177 177 176 175 174 170 167 163 162 162 160 158 158 155 150 146 143 141 141 140 138 134 131 126 124 122 119 115 109 104 100 95 91 85 73 67 67 63 58 54 49 47 40 19 352 345 346 349 349 350 353 356 355 356 4 15 13 4 7 13 6 354 353 353
185 189 191 189 188 190 186 183 182 175 172 176 175 171 173 174 174 174 179 180 177 177 181 180 176 174 170 166 164 164 164 162 161 159 156 152 149 146 145 144 141 137 133 130 128 126 124 121 117 111 104 98 94 90 86 79 72 67 61 51 44 44 41 33 14 351 340 342 347 349 351 353 355 356 357 3 15 18 10 7 11 8 360 355 353
187 185 186 189 190 187 184 184 181 176 175 177 174 173 176 177 175 162 165 176 178 179 182 181 178 176 171 167 167 167 166 163 161 159 156 154 151 148 147 146 142 139 135 133 131 129 127 123 118 111 105 99 94 89 86 81 74 68 62 45 28 32 33 21 2 346 338 339 345 350 352 352 355 356 357 3 11 17 16 12 5 2 2 359 355
191 184 182 189 190 185 184 184 181 177 177 178 176 176 180 183 176 151 154 180 184 182 182 181 180 178 173 170 170 169 167 164 162 161 158 156 154 152 152 150 148 145 142 139 137 134 131 127 120 114 109 105 100 94 89 83 75 69 65 50 27 28 25 6 352 344 339 342 346 351 354 353 355 357 360 4 4 6 14 16 5 355 356 357 355
194 185 181 188 189 185 185 183 179 176 178 179 178 179 185 184 169 153 165 188 187 185 184 183 182 179 174 173 173 170 168 166 165 163 161 159 158 158 157 155 151 148 145 143 142 139 135 130 125 120 115 112 107 100 93 85 75 67 64 57 45 37 22 359 351 345 343 350 350 352 356 355 356 358 1 6 5 358 1 6 2 356 353 353 352
191 182 178 184 186 186 185 182 177 177 181 181 179 183 189 182 166 166 187 193 187 186 186 184 182 177 175 176 174 172 170 168 167 165 164 164 163 162 160 156 152 150 148 147 145 142 139 135 130 126 121 116 109 101 94 87 77 67 60 56 52 44 25 359 355 352 350 355 356 356 357 356 357 359 1 8 11 5 358 353 354 356 355 354 353
183 177 174 180 185 185 183 180 178 179 181 181 181 187 188 179 172 181 199 195 187 186 189 186 181 177 177 176 175 174 173 171 170 169 168 167 165 164 162 158 156 154 152 150 149 146 143 139 133 127 121 114 107 97 88 84 79 72 62 55 53 48 34 10 359 358 357 358 358 358 357 356 357 359 3 8 10 8 2 352 347 350 351 352 353
176 172 171 179 184 184 180 179 179 180 182 182 185 189 186 180 182 195 204 193 184 185 190 187 182 179 176 176 178 177 175 173 172 171 171 169 168 166 163 160 158 155 153 152 152 149 146 141 134 129 123 113 105 94 84 80 76 71 63 55 51 48 43 30 13 5 2 360 360 360 358 358 358 356 2 9 9 6 1 352 346 347 347 349 352
172 168 170 179 182 180 180 182 181 180 182 184 187 189 187 184 190 200 202 190 182 184 187 185 184 181 177 178 181 179 176 176 175 172 172 170 168 166 163 160 159 158 157 156 154 151 147 142 137 134 127 115 105 94 84 78 71 65 61 55 50 47 44 40 31 22 15 4 359 0 358 358 358 355 360 9 13 10 1 351 348 348 347 349 351
171 167 171 178 177 176 181 183 181 180 182 184 187 189 189 192 196 199 195 187 182 184 185 184 184 181 180 183 184 182 181 181 178 174 171 168 168 167 164 162 161 161 160 158 156 153 149 145 143 140 132 120 110 97 84 75 67 60 55 50 47 43 38 37 34 29 26 14 1 0 359 357 356 355 1 10 14 12 5 354 349 349 350 351 351
169 167 173 179 178 178 182 182 181 182 182 183 187 190 191 196 196 187 184 186 186 186 185 186 185 181 183 187 187 188 187 182 180 178 173 169 166 163 164 164 162 161 160 159 159 159 156 152 149 145 137 126 116 103 89 77 67 59 54 47 43 40 33 29 27 24 26 22 5 357 359 356 354 359 7 12 13 13 11 0 351 349 350 351 352
168 168 171 177 181 183 185 183 181 181 182 184 188 191 192 194 187 176 178 185 190 189 186 188 186 182 184 188 190 192 188 181 182 182 177 173 166 160 164 166 161 160 162 163 165 165 160 156 154 148 139 128 114 102 91 79 62 47 38 32 29 27 23 20 18 18 22 24 11 359 2 1 1 8 15 14 10 12 13 3 351 348 349 350 351
168 169 169 174 182 186 188 187 183 181 183 186 189 192 193 189 181 178 178 182 188 189 187 188 188 185 185 190 194 193 185 181 182 182 180 177 168 159 163 168 167 169 170 169 170 168 162 162 165 157 144 134 115 98 87 75 60 35 14 6 3 1 2 7 10 11 15 19 14 6 8 8 7 10 17 16 11 11 12 2 349 346 348 347 348
169 171 172 176 183 188 191 190 186 185 186 187 190 194 194 185 179 180 180 182 185 187 189 190 191 189 187 191 195 192 184 181 181 178 179 180 171 163 167 174 176 178 178 178 176 175 173 173 175 167 155 146 129 110 90 65 62 50 12 351 346 337 339 352 1 2 4 10 12 10 9 7 5 5 9 11 9 11 12 0 347 346 348 347 346
178 179 180 182 184 188 192 193 190 188 187 188 192 195 191 182 181 182 181 181 182 186 190 192 193 190 187 191 196 191 184 184 182 177 178 180 177 173 174 179 182 182 184 185 182 180 179 174 175 176 167 158 141 124 105 63 61 61 24 343 353 327 320 337 351 355 359 6 9 9 7 2 1 0 1 0 1 7 9 356 346 348 349 348 347
185 185 185 186 184 186 191 195 194 191 189 190 192 191 186 184 185 184 183 182 182 188 191 192 193 189 184 191 198 192 184 184 183 181 181 182 183 181 176 180 187 187 188 188 186 188 186 177 178 187 182 171 156 138 127 83 68 69 39 327 348 326 318 334 345 349 359 7 4 4 2 359 0 0 357 353 353 360 4 355 349 349 348 349 348
188 187 187 187 187 187 190 195 198 197 195 194 192 187 186 188 188 186 185 183 183 186 188 189 190 186 186 196 199 191 185 185 185 186 185 186 189 183 172 179 195 192 191 192 192 197 196 189 191 192 185 180 169 158 159 123 97 106 121 335 327 310 321 337 343 344 353 359 357 357 356 356 1 0 355 351 348 353 359 353 348 349 347 348 346
189 186 186 188 191 191 190 192 198 201 200 196 192 188 186 187 188 187 185 184 184 185 185 183 180 183 193 201 197 188 188 188 187 188 187 188 191 181 166 182 203 195 194 197 197 201 200 200 205 201 191 189 180 177 193 178 171 204 180 321 295 302 326 340 353 2 358 350 347 350 350 352 359 357 354 353 346 350 356 352 347 347 345 345 344
190 186 185 185 187 191 192 192 197 204 203 197 192 190 188 186 186 185 184 182 179 177 177 178 181 190 200 202 192 187 191 191 188 190 190 191 191 179 163 180 202 195 196 201 201 206 207 205 208 207 202 202 195 196 211 208 230 254 265 289 299 328 339 344 9 21 5 344 339 345 346 349 354 354 356 357 350 351 355 352 348 348 343 342 342
193 188 185 185 188 193 196 196 196 201 203 195 186 187 188 185 184 185 184 183 183 186 190 194 198 201 201 197 191 191 194 192 190 192 193 192 191 178 161 169 195 193 193 197 200 209 216 217 216 211 207 209 209 212 220 225 242 264 289 305 323 345 345 355 25 25 356 336 341 346 347 350 354 355 357 358 355 355 356 353 352 352 347 341 338
198 192 186 188 194 196 197 198 198 202 205 199 185 183 187 189 192 193 193 195 200 204 206 205 203 200 197 196 195 195 195 193 193 195 195 195 193 182 167 168 184 188 187 196 202 203 210 223 226 218 211 213 217 221 228 237 251 270 291 317 340 348 350 11 28 15 340 334 345 345 346 352 354 354 356 356 355 356 355 354 355 354 351 345 339
202 196 187 190 201 201 199 200 201 206 210 205 195 192 198 202 206 205 205 208 210 208 206 201 197 199 201 201 198 197 196 195 196 198 199 199 195 189 182 178 177 176 178 195 208 202 205 223 229 221 212 216 222 226 233 241 254 271 293 320 338 347 6 26 21 353 329 337 344 343 347 353 352 351 353 354 353 353 354 357 359 356 351 350 348
202 194 188 196 206 205 202 202 203 209 214 212 210 213 215 216 215 211 211 212 207 201 200 199 197 200 204 202 199 198 199 200 200 200 201 202 199 195 194 188 180 175 170 177 201 207 210 226 231 221 213 219 223 227 237 246 256 270 294 318 331 352 19 25 0 329 328 338 340 343 347 347 348 349 349 351 351 350 352 356 360 359 355 353 353
198 193 193 199 205 205 206 206 207 211 215 216 218 222 220 217 213 210 209 205 198 197 199 200 199 200 202 201 198 198 200 204 207 204 201 203 202 200 201 198 191 185 176 174 191 204 211 225 231 221 216 222 224 229 235 240 252 270 291 310 329 0 13 356 325 320 333 335 334 340 343 342 343 342 343 347 349 346 347 351 354 357 357 356 355
197 197 198 201 203 205 208 208 209 212 214 215 216 217 217 216 212 209 207 201 196 195 198 199 198 199 200 200 198 199 200 203 210 210 205 204 203 203 206 205 200 196 192 190 194 201 211 222 227 222 220 222 225 233 239 241 253 264 277 304 337 4 339 309 310 317 321 324 330 334 335 336 337 336 339 344 345 344 344 346 348 350 353 355 354
194 196 199 202 204 206 208 210 210 211 211 212 213 216 218 217 212 210 208 203 197 196 197 198 198 198 199 200 198 199 200 199 205 212 210 207 206 205 207 208 205 204 204 204 205 209 215 222 224 221 222 224 228 236 242 246 255 263 277 308 333 320 265 290 324 326 308 317 327 326 327 332 333 335 339 341 341 342 342 342 344 346 348 351 351
195 196 199 203 207 209 210 211 211 209 208 210 213 215 216 215 211 212 212 206 200 199 198 199 200 199 200 201 198 198 202 200 202 210 213 211 209 208 208 209 208 208 209 210 214 220 224 225 225 223 223 225 230 237 246 259 270 273 275 285 288 268 266 292 324 329 305 310 317 317 323 329 329 332 337 338 338 340 340 339 340 341 342 346 348
199 200 201 203 207 210 211 212 212 210 209 209 208 208 210 210 208 212 214 209 203 201 199 200 202 200 201 204 201 200 205 204 203 212 219 217 212 210 212 212 212 212 212 212 213 219 227 228 228 228 227 228 233 240 248 259 265 260 251 252 259 264 268 279 295 293 284 297 310 313 317 323 326 330 333 334 335 336 337 336 337 337 338 342 344
205 206 207 208 209 210 210 211 211 210 210 207 201 199 204 207 206 210 214 209 202 199 198 200 202 201 202 208 210 207 209 208 207 214 223 222 214 210 213 216 215 215 216 214 207 206 218 227 229 230 230 231 235 240 241 242 244 246 247 252 260 263 257 258 267 269 273 289 302 307 311 316 320 323 326 328 331 333 334 334 334 335 337 340 342
209 208 209 211 212 211 211 211 210 210 211 207 201 200 205 206 204 205 209 209 205 202 199 199 200 197 197 207 214 212 211 212 213 217 222 223 217 211 211 215 217 215 215 214 207 201 204 215 222 229 232 232 233 237 237 237 240 242 246 251 255 255 253 257 261 262 272 289 297 299 305 310 314 317 320 322 324 327 330 330 332 336 338 340 341
211 210 210 212 213 213 212 211 210 210 210 204 200 202 206 206 204 204 205 210 213 210 206 205 203 197 196 205 213 211 209 213 217 220 224 227 223 217 216 220 222 220 218 217 212 208 209 215 221 228 231 233 236 238 238 240 244 245 246 248 249 251 254 256 255 256 272 287 291 293 301 307 309 312 314 316 318 321 324 326 331 336 338 339 339
212 212 211 211 212 213 212 211 211 211 211 206 202 202 205 206 208 208 207 210 216 218 215 214 210 203 200 206 213 209 208 214 219 220 224 229 227 223 221 223 225 225 223 221 218 216 217 220 228 234 235 235 237 239 241 244 246 246 247 249 250 251 253 252 252 259 272 282 287 294 300 304 307 310 311 313 315 317 318 323 329 333 335 336 337
209 214 214 211 211 213 212 211 212 213 213 211 206 203 207 212 215 216 215 214 216 218 216 214 214 210 207 210 214 211 208 214 221 224 226 228 225 221 221 222 224 224 223 222 223 222 220 221 228 235 238 239 239 240 242 245 246 247 250 251 252 255 255 253 255 263 273 280 286 293 299 302 306 309 309 310 313 315 317 322 326 328 331 332 331
196 208 213 208 208 212 213 213 214 214 214 212 206 203 207 213 214 217 220 220 219 220 219 216 214 214 213 213 214 213 213 218 226 229 231 230 225 221 220 221 223 224 224 224 224 224 223 225 230 237 240 241 242 242 242 244 246 249 251 252 254 257 255 254 258 266 273 278 284 292 299 303 305 306 306 308 312 314 316 319 321 322 323 321 321
194 205 210 206 206 210 212 214 215 213 213 213 207 203 207 210 206 209 220 225 222 222 222 217 212 211 212 213 212 213 215 221 226 229 229 228 224 222 222 224 226 228 229 228 228 227 224 222 227 239 245 245 244 244 245 246 248 249 251 253 256 258 257 258 264 267 269 275 284 292 297 300 301 301 302 304 307 309 310 312 313 313 313 315 320
199 206 211 210 211 214 215 215 215 214 211 208 204 206 209 207 200 197 201 207 206 206 209 213 213 210 209 209 209 211 212 211 211 214 218 219 219 218 219 221 223 228 233 236 237 237 233 226 225 234 244 246 246 247 247 247 248 250 253 255 255 256 257 258 259 260 264 276 291 296 297 298 300 301 301 303 306 308 307 307 306 305 308 315 319
198 208 216 217 217 220 219 216 214 213 210 204 204 209 208 202 200 201 199 201 208 212 216 221 223 219 214 211 209 210 209 206 204 206 210 215 221 222 219 216 215 218 228 236 242 247 246 240 236 240 245 249 250 251 250 251 253 255 258 259 259 261 261 261 262 265 272 284 293 296 296 297 300 301 301 302 303 304 305 306 304 300 303 309 311
188 202 215 216 212 212 213 211 209 211 211 209 208 207 201 200 207 211 212 219 225 221 215 218 223 221 218 215 211 208 206 204 203 204 207 214 224 231 232 230 226 223 224 228 232 241 248 247 244 245 248 249 249 250 250 252 254 256 259 260 260 261 263 265 269 275 278 283 287 290 293 296 299 301 300 300 300 302 302 302 302 302 306 308 305
188 200 211 211 203 198 200 204 207 211 214 211 204 197 201 210 215 216 217 223 220 207 204 215 223 221 219 218 215 212 209 208 207 209 212 217 224 230 234 239 242 241 239 237 232 232 240 246 246 248 249 247 247 250 252 254 256 259 260 260 259 261 264 267 270 272 274 279 284 289 292 295 296 297 297 297 298 298 298 300 304 306 307 305 303
191 203 208 209 204 196 193 199 203 207 212 213 207 205 214 220 222 221 218 211 203 201 209 220 225 221 219 221 219 216 213 212 211 212 214 217 221 227 234 240 245 249 254 256 249 242 242 246 247 246 246 246 247 250 254 257 257 256 258 260 262 264 266 266 268 272 276 280 284 286 290 294 296 297 296 296 296 297 299 302 303 300 298 301 306
199 206 208 209 205 195 190 198 201 200 206 211 209 210 215 214 214 221 221 213 207 208 212 217 221 220 219 220 218 212 210 213 212 211 214 218 222 228 234 239 243 245 250 256 254 248 242 240 240 242 245 249 251 252 252 253 252 252 256 263 267 269 270 268 268 271 275 277 281 286 291 297 299 298 297 297 298 299 299 298 295 296 300 305 307
202 208 209 210 209 203 203 211 214 211 211 207 198 199 204 202 205 218 222 219 215 213 211 213 217 217 216 217 214 207 208 213 214 214 219 225 228 229 232 236 240 244 248 251 250 246 244 246 247 248 248 248 249 250 252 255 260 265 269 272 272 271 270 269 268 269 271 276 283 290 295 298 299 299 299 298 297 296 294 293 295 299 302 304 304
205 211 212 213 215 216 216 218 218 219 218 213 205 202 203 199 202 214 220 217 214 213 212 210 210 212 213 213 209 207 210 213 214 217 224 230 230 230 235 242 246 247 250 252 250 246 247 250 251 250 246 243 245 252 259 267 275 280 281 278 272 267 265 265 267 271 275 281 287 293 296 298 298 299 299 297 294 293 293 295 299 301 303 305 307
208 212 212 210 212 213 211 210 210 211 213 210 202 196 198 200 199 207 217 218 216 214 211 207 207 211 212 208 206 208 211 211 213 219 225 228 231 236 244 252 254 250 248 248 245 240 239 241 242 245 248 251 255 263 269 275 276 275 273 274 274 272 270 271 274 278 281 286 289 292 294 296 297 298 298 296 295 295 297 300 303 305 307 309 311
206 206 204 203 203 203 202 201 201 203 207 204 198 200 210 210 198 195 210 217 216 212 210 210 211 210 207 205 206 210 211 212 216 221 223 226 234 243 247 249 248 243 237 233 229 228 231 237 243 251 257 260 263 268 271 271 269 269 270 274 278 280 280 280 281 282 283 285 288 290 292 294 296 297 296 296 297 299 302 305 307 309 311 311 312
200 198 196 196 196 196 196 194 191 195 201 201 202 209 210 201 192 197 211 216 213 210 209 210 209 208 206 205 206 206 207 211 216 220 224 231 239 243 241 237 232 227 223 223 225 231 238 245 252 258 262 265 268 269 267 265 268 271 276 280 282 284 284 283 282 282 283 285 287 290 292 295 296 297 298 300 303 306 308 310 311 311 312 312 313
194 192 192 192 190 189 188 186 187 196 205 205 206 210 207 201 200 208 213 210 206 206 207 206 205 204 203 200 198 198 203 210 216 222 230 237 239 234 228 222 218 219 224 231 236 242 247 251 255 260 264 267 269 268 266 267 271 275 279 282 284 284 285 283 282 283 284 286 289 292 295 297 299 301 303 306 309 311 311 312 312 313 314 314 316
188 186 185 182 179 178 179 181 187 199 207 207 206 208 208 207 207 209 209 207 207 207 206 204 201 198 196 196 196 199 206 214 223 230 232 229 224 220 218 218 219 225 233 237 239 243 248 253 258 263 265 267 269 269 270 271 274 276 278 281 282 282 282 283 284 286 288 291 295 297 299 300 302 305 309 311 312 311 312 312 314 315 317 318 320
180 176 173 170 169 170 174 180 190 199 203 204 204 204 205 206 205 203 203 205 204 202 200 198 194 192 193 196 202 212 222 229 230 224 217 212 213 215 218 219 222 225 231 235 239 244 250 256 261 265 268 270 271 272 273 274 274 275 277 279 280 282 284 286 289 292 294 296 298 300 302 305 308 312 313 313 312 313 314 316 317 319 321 323 324
174 173 170 169 172 177 180 185 193 201 203 205 207 206 205 203 200 197 197 196 194 194 194 193 192 196 202 209 217 225 228 223 214 208 206 208 212 214 215 218 221 226 232 239 245 250 255 260 264 267 271 273 275 275 275 275 275 277 279 281 283 286 289 292 294 296 297 299 302 305 308 312 314 314 314 314 316 318 320 320 321 322 324 325 324
Height
1505 1507 1508 1510 1513 1516 1518 1519 1521 1524 1526 1528 1529 1530 1531 1533 1534 1536 1536 1538 1540 1541 1542 1542 1543 1544 1545 1546 1546 1547 1548 1549 1550 1551 1552 1552 1553 1554 1555 1556 1557 1557 1558 1558 1558 1558 1559 1559 1559 1559 1559 1560 1560 1560 1560 1560 1560 1559 1558 1558 1557 1556 1554 1554 1553 1553 1551 1549 1547 1545 1543 1539 1536 1534 1531 1527 1523 1520 1517 1515 1511 1508 1506 1504 1501
1504 1506 1507 1509 1512 1514 1517 1518 1520 1522 1524 1526 1528 1529 1530 1532 1534 1535 1535 1537 1539 1540 1541 1542 1542 1543 1544 1545 1546 1547 1548 1549 1550 1551 1551 1552 1553 1554 1555 1556 1557 1558 1558 1559 1558 1559 1559 1559 1560 1560 1560 1560 1560 1561 1561 1561 1561 1560 1559 1558 1558 1557 1555 1554 1553 1553 1551 1549 1547 1545 1543 1540 1537 1535 1532 1527 1523 1520 1518 1515 1511 1509 1507 1504 1501
1503 1504 1506 1508 1510 1513 1515 1517 1519 1521 1523 1525 1527 1528 1530 1531 1533 1534 1535 1536 1537 1539 1540 1541 1542 1542 1543 1544 1545 1547 1548 1548 1550 1550 1551 1552 1553 1554 1555 1556 1557 1558 1559 1559 1559 1559 1559 1560 1560 1560 1560 1561 1561 1561 1561 1561 1561 1560 1559 1559 1558 1557 1555 1554 1553 1553 1551 1550 1548 1546 1543 1540 1538 1535 1532 1528 1524 1520 1518 1515 1511 1509 1507 1504 1500
1501 1503 1505 1507 1509 1511 1514 1515 1517 1520 1522 1524 1526 1528 1530 1531 1533 1534 1534 1535 1536 1538 1539 1541 1541 1542 1543 1544 1545 1546 1547 1548 1549 1550 1551 1552 1553 1554 1555 1556 1557 1558 1558 1559 1559 1560 1560 1560 1561 1561 1561 1561 1562 1562 1561 1561 1561 1560 1560 1560 1559 1557 1556 1555 1554 1553 1552 1550 1548 1546 1544 1541 1538 1536 1532 1528 1524 1521 1518 1515 1512 1510 1507 1504 1501
1499 1502 1504 1505 1508 1510 1512 1514 1516 1519 1521 1524 1526 1528 1529 1531 1532 1533 1533 1534 1535 1537 1538 1540 1541 1541 1542 1544 1545 1546 1547 1548 1549 1549 1550 1552 1553 1554 1555 1556 1557 1557 1558 1558 1559 1560 1560 1561 1561 1561 1562 1562 1562 1562 1562 1562 1561 1561 1560 1560 1559 1558 1556 1556 1555 1554 1553 1551 1549 1547 1544 1542 1539 1535 1532 1528 1524 1522 1519 1515 1513 1510 1507 1504 1502
1498 1501 1503 1504 1506 1509 1510 1513 1515 1518 1521 1523 1525 1527 1529 1530 1531 1532 1532 1534 1535 1536 1538 1539 1540 1541 1542 1543 1544 1545 1547 1547 1548 1549 1550 1551 1552 1553 1554 1555 1556 1557 1557 1558 1559 1560 1560 1561 1561 1562 1562 1562 1562 1562 1562 1562 1561 1561 1560 1560 1559 1558 1557 1556 1555 1554 1553 1551 1549 1546 1544 1541 1538 1535 1532 1528 1525 1522 1519 1515 1513 1511 1508 1505 1502
1497 1500 1502 1503 1505 1507 1509 1512 1514 1517 1520 1523 1525 1527 1528 1529 1530 1531 1532 1532 1534 1535 1537 1538 1539 1541 1542 1543 1544 1545 1546 1547 1548 1549 1550 1551 1552 1553 1554 1555 1555 1556 1557 1558 1559 1560 1560 1561 1561 1561 1562 1562 1562 1562 1562 1562 1561 1561 1561 1559 1558 1557 1557 1556 1555 1554 1553 1551 1549 1546 1544 1541 1538 1535 1532 1529 1525 1523 1519 1516 1513 1510 1507 1505 1503
1496 1498 1500 1502 1504 1506 1508 1511 1514 1517 1519 1522 1524 1526 1527 1528 1529 1530 1531 1532 1533 1535 1536 1537 1539 1540 1541 1542 1543 1544 1545 1546 1548 1549 1550 1551 1551 1553 1553 1554 1555 1555 1556 1558 1559 1560 1560 1561 1561 1562 1562 1562 1562 1562 1562 1562 1561 1561 1561 1559 1558 1557 1557 1556 1555 1554 1552 1551 1548 1546 1544 1541 1538 1535 1532 1528 1525 1522 1519 1517 1514 1511 1507 1505 1504
1495 1497 1499 1501 1503 1505 1507 1510 1513 1516 1518 1520 1523 1524 1526 1527 1528 1529 1530 1531 1532 1534 1535 1536 1538 1539 1540 1541 1542 1544 1545 1546 1547 1548 1549 1550 1551 1553 1553 1554 1555 1555 1556 1558 1559 1560 1561 1561 1562 1562 1562 1562 1562 1562 1562 1562 1561 1561 1560 1559 1558 1557 1556 1556 1555 1553 1552 1550 1548 1546 1544 1541 1538 1535 1531 1528 1525 1522 1520 1518 1515 1512 1509 1506 1504
1493 1496 1498 1499 1502 1504 1506 1508 1511 1514 1517 1519 1521 1523 1524 1526 1527 1528 1529 1530 1531 1532 1534 1535 1537 1538 1539 1540 1541 1543 1544 1545 1546 1547 1549 1550 1551 1552 1553 1554 1555 1556 1557 1558 1559 1560 1561 1561 1562 1562 1562 1562 1562 1562 1562 1562 1561 1560 1560 1559 1558 1558 1556 1555 1554 1552 1551 1549 1548 1545 1543 1541 1538 1536 1533 1529 1526 1523 1520 1518 1516 1513 1510 1506 1504
1492 1494 1496 1498 1500 1503 1505 1507 1510 1513 1515 1518 1520 1522 1523 1525 1526 1527 1528 1529 1530 1531 1533 1534 1535 1537 1538 1539 1540 1541 1542 1543 1545 1546 1548 1549 1551 1552 1553 1554 1555 1556 1557 1558 1559 1560 1561 1561 1562 1562 1562 1562 1562 1562 1562 1561 1561 1560 1559 1559 1558 1557 1556 1555 1553 1551 1550 1549 1547 1545 1543 1541 1539 1537 1534 1530 1527 1523 1520 1518 1516 1513 1510 1507 1504
1491 1493 1494 1496 1499 1501 1503 1506 1509 1512 1514 1517 1519 1521 1522 1524 1525 1526 1527 1528 1529 1530 1531 1533 1534 1535 1537 1538 1539 1540 1541 1543 1544 1546 1547 1548 1550 1551 1553 1554 1555 1556 1557 1558 1560 1560 1560 1561 1561 1562 1562 1562 1561 1561 1561 1561 1560 1559 1559 1558 1557 1557 1556 1554 1553 1551 1549 1547 1547 1545 1543 1541 1539 1537 1534 1530 1527 1524 1521 1519 1517 1515 1512 1509 1506
1490 1492 1493 1495 1497 1499 1502 1505 1507 1511 1513 1516 1518 1519 1522 1523 1524 1526 1527 1527 1528 1529 1530 1531 1533 1534 1535 1537 1538 1539 1540 1542 1544 1545 1546 1547 1548 1551 1552 1553 1554 1556 1557 1559 1560 1560 1560 1561 1561 1561 1561 1561 1561 1560 1560 1560 1559 1559 1558 1557 1557 1556 1555 1554 1553 1551 1548 1547 1546 1545 1543 1541 1539 1536 1534 1531 1528 1525 1522 1519 1518 1516 1513 1511 1509
1489 1491 1493 1494 1496 1498 1501 1504 1506 1509 1512 1514 1517 1518 1520 1522 1524 1525 1526 1526 1527 1528 1529 1530 1531 1533 1534 1535 1536 1537 1540 1541 1543 1544 1546 1547 1548 1550 1552 1553 1554 1555 1556 1558 1559 1560 1560 1561 1560 1561 1561 1560 1560 1560 1560 1559 1559 1558 1558 1557 1556 1555 1555 1554 1552 1550 1548 1547 1546 1544 1542 1540 1538 1536 1534 1531 1529 1526 1522 1520 1519 1516 1514 1513 1511
1487 1489 1490 1493 1495 1497 1500 1503 1505 1508 1510 1513 1515 1517 1519 1521 1522 1524 1525 1525 1526 1527 1528 1529 1530 1532 1533 1534 1535 1536 1538 1540 1541 1543 1545 1547 1549 1550 1551 1552 1553 1554 1555 1557 1558 1559 1559 1560 1560 1560 1560 1560 1560 1560 1559 1559 1558 1558 1559 1559 1558 1557 1556 1554 1552 1550 1548 1547 1545 1544 1542 1540 1538 1536 1533 1531 1529 1527 1523 1522 1520 1518 1515 1514 1512
1484 1486 1489 1492 1494 1497 1499 1502 1504 1507 1509 1512 1514 1516 1518 1520 1521 1523 1524 1525 1526 1526 1527 1528 1529 1531 1532 1533 1533 1535 1537 1539 1540 1542 1543 1546 1548 1549 1550 1551 1552 1553 1555 1556 1557 1558 1558 1559 1559 1559 1560 1560 1559 1559 1559 1558 1558 1558 1559 1560 1559 1558 1557 1555 1553 1551 1549 1547 1545 1543 1541 1539 1537 1535 1533 1531 1529 1526 1524 1522 1521 1519 1516 1514 1511
1483 1486 1489 1491 1493 1496 1498 1501 1504 1506 1508 1510 1513 1515 1517 1519 1520 1521 1523 1524 1524 1525 1526 1527 1528 1530 1531 1532 1532 1533 1536 1537 1539 1540 1542 1544 1547 1548 1550 1552 1553 1553 1555 1556 1557 1557 1557 1558 1558 1559 1559 1559 1559 1558 1558 1558 1558 1558 1559 1559 1559 1558 1556 1554 1552 1550 1548 1546 1544 1542 1540 1539 1536 1534 1532 1531 1529 1526 1524 1522 1521 1518 1516 1514 1511
1483 1486 1488 1491 1493 1495 1497 1500 1503 1505 1507 1509 1512 1514 1516 1518 1519 1520 1522 1523 1523 1524 1525 1526 1527 1529 1530 1530 1530 1533 1536 1537 1538 1539 1540 1543 1545 1547 1549 1552 1553 1553 1554 1555 1556 1556 1557 1557 1557 1557 1558 1558 1558 1558 1558 1558 1558 1558 1558 1558 1558 1557 1555 1553 1551 1549 1547 1545 1543 1542 1540 1538 1536 1534 1533 1531 1529 1527 1524 1523 1521 1519 1517 1515 1512
1482 1485 1488 1490 1492 1495 1497 1499 1502 1504 1506 1508 1510 1513 1515 1516 1518 1519 1521 1522 1522 1523 1524 1525 1527 1528 1528 1528 1531 1534 1535 1536 1537 1538 1539 1541 1543 1545 1548 1551 1552 1552 1554 1555 1555 1556 1556 1557 1557 1557 1557 1557 1557 1557 1557 1557 1557 1557 1557 1557 1556 1555 1553 1552 1550 1548 1546 1545 1544 1542 1541 1539 1537 1536 1534 1532 1530 1528 1525 1523 1522 1520 1518 1515 1513
1481 1484 1487 1489 1491 1494 1496 1498 1500 1502 1504 1507 1510 1512 1513 1514 1516 1518 1520 1521 1522 1523 1524 1524 1525 1526 1527 1529 1531 1533 1534 1535 1536 1537 1539 1540 1542 1544 1547 1550 1551 1552 1553 1554 1555 1555 1555 1556 1556 1556 1556 1556 1556 1556 1556 1556 1556 1556 1556 1555 1555 1554 1552 1551 1549 1546 1545 1545 1545 1543 1541 1540 1538 1536 1535 1533 1531 1528 1526 1524 1522 1520 1518 1516 1514
1479 1482 1485 1487 1490 1492 1494 1496 1498 1501 1503 1506 1508 1510 1512 1513 1514 1515 1517 1518 1519 1520 1521 1522 1524 1525 1527 1529 1530 1531 1532 1534 1535 1536 1538 1540 1542 1543 1545 1548 1551 1552 1553 1554 1555 1555 1555 1555 1555 1555 1555 1555 1556 1556 1555 1555 1555 1555 1555 1554 1554 1552 1551 1550 1547 1545 1546 1546 1545 1543 1542 1540 1539 1537 1534 1532 1530 1528 1526 1524 1522 1520 1519 1517 1515
1477 1479 1482 1486 1489 1491 1493 1495 1497 1499 1501 1503 1506 1508 1510 1511 1512 1513 1514 1515 1516 1518 1520 1522 1524 1525 1526 1528 1529 1529 1531 1533 1534 1535 1537 1539 1541 1542 1544 1546 1549 1551 1553 1554 1555 1556 1556 1554 1554 1554 1554 1554 1555 1555 1555 1555 1554 1554 1554 1553 1553 1551 1551 1549 1546 1546 1547 1546 1544 1543 1542 1540 1539 1537 1534 1532 1530 1528 1526 1524 1522 1520 1519 1518 1515
1477 1480 1483 1486 1489 1491 1493 1495 1497 1498 1500 1502 1504 1505 1507 1508 1510 1511 1513 1514 1516 1518 1520 1522 1523 1524 1525 1526 1527 1529 1530 1531 1533 1535 1536 1538 1540 1541 1542 1543 1546 1548 1551 1553 1555 1556 1555 1553 1552 1553 1554 1553 1554 1554 1554 1554 1554 1554 1553 1552 1552 1551 1550 1548 1546 1547 1547 1546 1544 1543 1542 1540 1539 1537 1534 1532 1531 1529 1526 1524 1522 1520 1519 1517 1516
1477 1481 1484 1485 1487 1490 1492 1494 1496 1497 1499 1501 1502 1503 1505 1507 1509 1511 1512 1514 1516 1517 1519 1520 1521 1523 1524 1525 1526 1528 1529 1530 1532 1533 1535 1537 1538 1540 1541 1542 1544 1546 1548 1551 1552 1553 1552 1550 1551 1552 1552 1552 1553 1553 1553 1553 1553 1553 1552 1552 1551 1550 1548 1547 1547 1547 1547 1545 1544 1543 1542 1540 1539 1537 1535 1533 1531 1529 1527 1524 1522 1520 1519 1517 1516
1474 1478 1480 1481 1484 1487 1490 1492 1494 1496 1498 1500 1501 1503 1504 1506 1508 1509 1511 1513 1515 1516 1517 1519 1520 1522 1523 1524 1525 1526 1528 1529 1530 1531 1534 1535 1537 1538 1540 1541 1543 1545 1546 1547 1548 1549 1549 1549 1550 1551 1551 1551 1551 1552 1552 1552 1552 1551 1551 1551 1550 1549 1548 1548 1548 1547 1546 1545 1544 1543 1541 1540 1539 1537 1535 1533 1532 1530 1528 1525 1522 1521 1519 1517 1516
1472 1475 1477 1480 1482 1485 1488 1490 1493 1495 1497 1499 1501 1502 1503 1504 1506 1508 1509 1512 1514 1515 1516 1518 1519 1521 1522 1523 1524 1525 1527 1528 1529 1530 1532 1534 1535 1537 1538 1540 1542 1543 1544 1544 1544 1546 1547 1547 1548 1549 1550 1550 1550 1550 1550 1550 1550 1550 1550 1550 1549 1548 1548 1548 1547 1546 1545 1545 1543 1542 1541 1540 1539 1537 1535 1534 1532 1530 1528 1526 1523 1521 1519 1517 1516
1471 1473 1476 1478 1481 1484 1486 1489 1491 1493 1496 1498 1499 1500 1501 1503 1505 1506 1508 1510 1512 1514 1515 1516 1518 1520 1521 1522 1524 1524 1525 1527 1527 1528 1529 1531 1532 1534 1536 1538 1539 1541 1542 1543 1544 1544 1545 1546 1547 1548 1548 1549 1549 1549 1549 1549 1549 1549 1549 1548 1548 1548 1548 1548 1546 1545 1545 1544 1543 1542 1541 1539 1538 1537 1535 1534 1532 1530 1528 1526 1524 1522 1520 1518 1516
1470 1472 1474 1477 1479 1482 1485 1487 1490 1492 1494 1496 1497 1499 1500 1502 1503 1504 1506 1508 1509 1511 1513 1515 1516 1518 1520 1521 1522 1523 1524 1525 1526 1526 1526 1528 1530 1532 1534 1535 1537 1539 1540 1542 1543 1544 1544 1545 1546 1546 1547 1547 1548 1548 1548 1548 1548 1548 1548 1548 1548 1548 1547 1546 1545 1544 1544 1543 1542 1541 1540 1539 1537 1536 1535 1534 1532 1530 1528 1526 1524 1522 1520 1518 1516
1469 1471 1473 1476 1478 1481 1484 1486 1488 1491 1492 1494 1496 1498 1499 1500 1502 1503 1504 1506 1508 1510 1512 1514 1515 1517 1519 1520 1520 1521 1522 1523 1524 1524 1525 1526 1529 1530 1532 1533 1535 1537 1538 1540 1542 1543 1544 1544 1545 1545 1545 1546 1546 1546 1546 1546 1547 1547 1548 1548 1548 1548 1547 1545 1545 1544 1543 1542 1541 1540 1539 1538 1537 1535 1534 1533 1531 1529 1528 1526 1524 1522 1521 1519 1517
1467 1469 1472 1474 1477 1479 1482 1484 1486 1489 1491 1492 1494 1496 1497 1499 1501 1502 1503 1505 1508 1509 1511 1513 1514 1516 1518 1519 1519 1520 1521 1522 1523 1524 1524 1526 1528 1529 1531 1532 1534 1535 1537 1539 1540 1542 1543 1543 1544 1544 1544 1545 1545 1545 1546 1546 1546 1547 1547 1547 1546 1546 1546 1545 1545 1544 1543 1542 1540 1540 1538 1537 1536 1535 1534 1532 1530 1529 1527 1526 1524 1522 1521 1519 1517
1466 1468 1470 1473 1475 1477 1480 1482 1484 1487 1489 1491 1493 1494 1495 1497 1499 1500 1502 1504 1505 1507 1509 1511 1513 1514 1516 1517 1517 1518 1520 1521 1522 1523 1523 1524 1526 1528 1529 1531 1532 1534 1535 1537 1539 1540 1541 1542 1543 1543 1544 1544 1544 1545 1545 1545 1545 1545 1545 1545 1545 1544 1544 1544 1543 1543 1542 1541 1540 1539 1538 1537 1536 1534 1533 1531 1529 1528 1527 1525 1524 1522 1521 1519 1517
1465 1467 1469 1471 1473 1475 1478 1480 1483 1485 1487 1489 1491 1492 1493 1495 1496 1498 1500 1502 1503 1505 1507 1509 1510 1512 1514 1514 1514 1516 1518 1520 1521 1522 1523 1524 1526 1527 1528 1530 1531 1532 1534 1535 1537 1538 1539 1540 1541 1542 1543 1543 1543 1544 1544 1544 1544 1543 1543 1543 1543 1543 1543 1542 1542 1542 1541 1540 1540 1538 1537 1536 1535 1533 1532 1531 1529 1527 1526 1525 1523 1522 1520 1519 1517
1464 1466 1467 1469 1471 1474 1476 1479 1481 1483 1485 1487 1489 1490 1491 1493 1494 1495 1497 1499 1501 1503 1505 1507 1509 1510 1512 1512 1512 1514 1518 1520 1520 1521 1522 1523 1525 1526 1527 1528 1530 1531 1532 1534 1535 1536 1537 1538 1539 1540 1541 1541 1542 1542 1542 1542 1543 1542 1542 1542 1542 1541 1541 1541 1540 1540 1539 1539 1538 1537 1536 1535 1534 1533 1531 1530 1528 1527 1525 1524 1523 1521 1520 1518 1516
1463 1464 1466 1468 1470 1472 1474 1476 1478 1481 1483 1485 1486 1488 1490 1491 1492 1493 1495 1497 1499 1500 1503 1505 1506 1508 1510 1510 1511 1513 1516 1518 1519 1521 1521 1522 1523 1525 1526 1527 1528 1529 1531 1532 1533 1534 1535 1536 1538 1539 1540 1540 1540 1540 1540 1541 1541 1541 1541 1541 1540 1540 1540 1540 1539 1539 1538 1538 1537 1537 1536 1535 1534 1532 1531 1529 1528 1526 1525 1523 1522 1521 1519 1517 1515
1463 1463 1464 1467 1469 1470 1472 1474 1476 1479 1480 1482 1484 1487 1488 1489 1491 1493 1493 1494 1497 1499 1501 1503 1505 1506 1508 1509 1510 1511 1514 1516 1518 1519 1520 1521 1522 1523 1525 1526 1527 1528 1529 1530 1531 1532 1533 1535 1536 1537 1538 1538 1538 1538 1539 1539 1539 1540 1540 1539 1539 1539 1539 1539 1538 1538 1538 1537 1536 1536 1535 1534 1532 1531 1530 1528 1527 1526 1524 1523 1521 1520 1518 1516 1514
1462 1463 1463 1465 1467 1469 1471 1472 1475 1477 1479 1481 1483 1485 1486 1487 1490 1492 1492 1493 1496 1498 1500 1501 1502 1503 1505 1506 1507 1509 1512 1514 1516 1518 1519 1520 1521 1522 1524 1525 1526 1527 1528 1528 1529 1530 1532 1533 1534 1535 1536 1537 1537 1537 1537 1537 1537 1538 1538 1538 1538 1538 1537 1537 1537 1537 1536 1535 1535 1534 1533 1532 1531 1530 1528 1527 1526 1524 1523 1521 1520 1519 1517 1515 1513
1460 1461 1463 1464 1466 1468 1469 1471 1474 1476 1478 1480 1482 1483 1484 1486 1489 1491 1491 1492 1495 1497 1497 1498 1500 1502 1503 1503 1505 1507 1509 1511 1513 1517 1519 1520 1521 1522 1523 1524 1525 1526 1527 1528 1529 1529 1530 1531 1532 1534 1535 1535 1535 1535 1536 1536 1536 1536 1536 1536 1536 1536 1536 1536 1535 1535 1534 1534 1533 1532 1531 1530 1529 1528 1527 1526 1524 1522 1521 1520 1518 1517 1515 1513 1511
1459 1460 1462 1464 1465 1467 1469 1471 1473 1474 1476 1478 1480 1481 1484 1486 1486 1487 1488 1489 1492 1494 1495 1496 1498 1500 1501 1502 1504 1505 1507 1508 1509 1512 1516 1519 1521 1522 1523 1524 1525 1526 1527 1528 1528 1529 1529 1530 1531 1532 1533 1534 1534 1534 1534 1534 1534 1534 1534 1534 1534 1534 1534 1533 1533 1532 1532 1532 1531 1530 1529 1529 1528 1527 1526 1524 1522 1521 1519 1518 1516 1515 1513 1511 1509
1459 1460 1461 1462 1464 1466 1468 1469 1471 1472 1474 1476 1478 1480 1482 1483 1483 1485 1486 1488 1490 1493 1494 1494 1495 1498 1499 1500 1502 1504 1505 1506 1506 1508 1512 1516 1519 1522 1523 1523 1524 1524 1525 1526 1528 1528 1529 1530 1530 1531 1532 1532 1533 1533 1533 1533 1533 1533 1533 1533 1533 1532 1532 1532 1531 1531 1531 1531 1530 1529 1528 1527 1526 1525 1524 1522 1521 1519 1517 1516 1514 1512 1510 1508 1507
1458 1459 1460 1461 1463 1465 1466 1468 1469 1471 1472 1474 1477 1478 1479 1480 1482 1483 1485 1487 1489 1492 1492 1492 1493 1496 1497 1498 1500 1501 1502 1504 1505 1506 1509 1513 1516 1519 1521 1522 1522 1523 1523 1524 1526 1527 1528 1529 1529 1530 1531 1531 1530 1530 1531 1531 1531 1531 1531 1531 1530 1530 1530 1530 1530 1530 1529 1529 1528 1528 1527 1525 1524 1523 1521 1520 1519 1517 1515 1513 1512 1510 1508 1506 1504
1457 1458 1459 1460 1462 1464 1465 1467 1468 1469 1470 1472 1475 1476 1477 1479 1480 1482 1484 1485 1487 1489 1490 1491 1492 1494 1495 1496 1498 1500 1502 1503 1504 1505 1507 1510 1513 1516 1517 1519 1520 1521 1521 1522 1524 1525 1526 1527 1528 1528 1528 1528 1528 1529 1529 1529 1529 1529 1529 1528 1528 1528 1528 1528 1528 1528 1527 1527 1526 1525 1524 1523 1522 1520 1519 1517 1516 1514 1512 1511 1509 1507 1506 1504 1502
1456 1456 1457 1459 1460 1462 1464 1465 1466 1467 1469 1471 1473 1475 1476 1478 1479 1480 1482 1483 1485 1487 1489 1490 1491 1493 1494 1495 1498 1500 1502 1503 1504 1505 1506 1509 1511 1513 1515 1516 1517 1517 1518 1519 1521 1522 1524 1525 1525 1526 1526 1526 1527 1527 1527 1527 1526 1526 1526 1526 1525 1526 1525 1525 1526 1525 1525 1524 1523 1522 1521 1520 1518 1517 1516 1514 1512 1511 1509 1508 1506 1504 1502 1500 1499
1454 1455 1456 1457 1459 1460 1462 1463 1464 1466 1468 1469 1471 1473 1474 1477 1479 1479 1480 1481 1483 1486 1487 1489 1490 1491 1493 1494 1497 1500 1501 1503 1504 1504 1506 1508 1509 1511 1512 1514 1514 1515 1515 1517 1518 1520 1521 1522 1523 1523 1524 1525 1525 1525 1525 1524 1524 1524 1524 1523 1523 1523 1523 1523 1523 1522 1522 1521 1520 1519 1518 1517 1515 1514 1512 1511 1509 1508 1506 1505 1503 1501 1499 1498 1496
1452 1454 1455 1456 1457 1459 1460 1462 1463 1464 1466 1468 1470 1471 1473 1476 1478 1478 1479 1480 1482 1484 1486 1488 1489 1490 1492 1494 1496 1498 1500 1501 1503 1504 1505 1507 1508 1509 1511 1512 1512 1513 1513 1514 1516 1517 1519 1520 1520 1521 1522 1523 1523 1523 1523 1522 1522 1522 1522 1521 1521 1521 1521 1520 1519 1519 1518 1518 1517 1516 1515 1514 1512 1511 1509 1508 1506 1505 1503 1502 1500 1498 1496 1494 1492
1451 1452 1453 1454 1456 1457 1459 1460 1462 1463 1465 1467 1469 1471 1473 1475 1476 1477 1478 1480 1481 1483 1485 1487 1488 1489 1491 1493 1495 1497 1498 1500 1502 1503 1504 1505 1507 1508 1509 1510 1510 1511 1511 1513 1514 1516 1517 1518 1519 1519 1520 1521 1521 1521 1521 1521 1520 1520 1519 1518 1518 1518 1518 1517 1517 1516 1516 1515 1514 1513 1512 1510 1509 1507 1506 1504 1503 1502 1500 1498 1497 1495 1493 1491 1489
1450 1451 1452 1453 1454 1456 1457 1459 1460 1462 1464 1466 1468 1469 1471 1473 1475 1477 1478 1479 1480 1482 1484 1485 1487 1489 1490 1492 1494 1496 1497 1499 1501 1502 1503 1505 1506 1507 1508 1508 1509 1509 1510 1511 1513 1514 1515 1516 1517 1517 1518 1518 1518 1519 1519 1518 1517 1516 1516 1516 1516 1516 1515 1515 1514 1513 1513 1512 1511 1510 1508 1507 1505 1504 1503 1501 1500 1498 1497 1495 1493 1491 1489 1487 1485
1449 1450 1451 1452 1453 1454 1456 1457 1459 1461 1463 1465 1466 1468 1470 1472 1474 1475 1476 1477 1479 1481 1482 1484 1486 1488 1489 1491 1493 1495 1496 1498 1500 1501 1502 1504 1504 1505 1506 1507 1507 1508 1509 1510 1512 1513 1514 1514 1515 1515 1516 1516 1516 1516 1516 1515 1514 1514 1514 1514 1514 1513 1512 1512 1511 1510 1509 1508 1507 1506 1504 1503 1502 1501 1499 1498 1496 1495 1493 1492 1490 1488 1486 1484 1482
1448 1449 1450 1451 1452 1454 1455 1457 1459 1460 1462 1464 1465 1467 1468 1471 1472 1474 1475 1476 1478 1480 1482 1484 1485 1487 1489 1491 1492 1494 1496 1497 1499 1500 1501 1502 1503 1504 1505 1505 1506 1507 1508 1510 1511 1511 1512 1512 1513 1513 1513 1513 1513 1513 1512 1512 1511 1511 1512 1511 1511 1510 1509 1509 1508 1507 1506 1505 1504 1503 1501 1500 1499 1498 1496 1495 1493 1491 1490 1488 1486 1485 1483 1481 1479
1447 1448 1449 1451 1452 1453 1455 1457 1459 1460 1461 1463 1465 1466 1468 1470 1471 1473 1474 1476 1478 1479 1481 1483 1485 1487 1489 1490 1491 1493 1495 1496 1498 1499 1500 1501 1502 1503 1504 1505 1506 1507 1507 1508 1508 1509 1510 1510 1510 1511 1511 1511 1510 1510 1510 1509 1509 1509 1509 1508 1508 1507 1506 1505 1504 1504 1503 1502 1501 1500 1498 1497 1496 1494 1493 1491 1490 1488 1487 1485 1483 1481 1479 1477 1476
1447 1448 1449 1451 1452 1453 1455 1457 1458 1460 1461 1463 1464 1466 1468 1469 1471 1472 1474 1476 1477 1479 1481 1483 1484 1486 1488 1489 1491 1492 1494 1495 1497 1498 1499 1500 1501 1502 1503 1504 1504 1505 1505 1506 1506 1507 1508 1508 1508 1508 1508 1508 1508 1508 1507 1507 1507 1506 1506 1505 1505 1504 1503 1502 1502 1501 1500 1499 1497 1496 1495 1494 1493 1491 1490 1488 1487 1485 1483 1481 1479 1478 1476 1474 1473
1447 1448 1450 1451 1452 1454 1455 1457 1458 1460 1461 1463 1465 1466 1467 1469 1470 1472 1474 1476 1477 1479 1481 1482 1484 1486 1487 1489 1490 1491 1493 1494 1496 1497 1498 1499 1500 1501 1501 1502 1502 1503 1503 1504 1504 1505 1506 1506 1506 1506 1506 1506 1506 1506 1505 1505 1504 1504 1503 1503 1502 1501 1500 1500 1499 1498 1497 1496 1494 1493 1492 1491 1489 1488 1486 1485 1483 1482 1480 1478 1476 1475 1473 1472 1470